Location: *
(40.7765°S, 106.5327°E)
Time: 01:03:19
(UTC+00:00)

Ariane H8 - Visible Passes

Search period start: 03 February 2023 00:00
Search period end: 13 February 2023 00:00
Orbit: 503 x 23141 km, 8.6° (Epoch: 02 February)

Date Brightness Start Highest point End Pass type
(mag) Time Alt. Az. Time Alt. Az. Time Alt. Az.
03 Feb ? 16:19:52 10° WNW 16:59:04 19° NW 16:59:04 19° NW visible
04 Feb ? 07:53:56 10° NW 12:24:15 37° N 13:20:59 13° NE visible
05 Feb ? 14:53:06 10° WNW 16:29:48 23° NNW 16:30:06 23° NNW visible
06 Feb ? 07:19:44 10° NW 11:38:40 37° N 12:51:12 10° NE visible
07 Feb ? 12:18:23 10° WNW 15:56:58 26° NNW 16:01:07 26° NNW visible
09 Feb ? 11:06:44 10° NW 15:23:25 29° NNW 15:32:09 27° N visible
11 Feb ? 10:15:21 10° NW 14:48:55 32° NNW 15:03:08 27° N visible
